STARLINK-32171, 60332

Orbit data source: Space-Track

STARLINK-32171, 60332 is a payload satellite owned by SpaceX/Seattle (US) in LEO that was launched on Fri, 02 Aug 2024 UTC via an FALCON 9 launch vehicle from the Air Force Eastern Test Range (AFETR). Payload-class satellites include a variety of spacecraft equipped with specific instruments for various scientific and technological missions. These include communications satellites like Starlink; space stations such as the ISS; scientific satellites like the Hubble; Earth observation satellites from companies like Planet Labs, Umbra, and HawkEye 360; GPS; miniature CubeSats for education and research; and military/defense satellites.

Loading next visibility...
Identifier
60332, 2024-136D
Orbit
LEO
Last TLE update
1 day ago
Origin
Manufacturer
SpaceX/Seattle
Mission
Operational Commercial Communications
Bus & Motor
STARLINK V2M, Unknown motor
Mass
730 kg wet, ~700 kg dry
Launch date (UTC)
2024-08-02 (9 months ago)
Launch vehicle
FALCON 9
Launch site
Air Force Eastern Test Range (AFETR)
Object type
Payload
Rocket body
Debris
Shape & HBR
Box + 2 Pan, 29 m
Radar Cross Section
33.884 m², Large (>1 m²)

Expand to show TLE details & history

TLE from 1 day ago
0 STARLINK-32171
1 60332U 24136D   25128.18504474 -.00000088  00000-0  91753-5 0  9998
2 60332  53.1625  54.4870 0001360  88.3862 271.7295 15.30182478 42896
Epoch: 2025-05-08T04:26Z
Definitive object data (Epoch: 2025-05-08T04:26:27.865Z)
Latitude
0.00001°
Longitude
121.61173°
Altitude
476.139 km
Speed
7.629 km/s
True Right ascension
03h 37m 56s
True Declination
0° 00' 00"
Sunlit
Object was in daylight at TLE epoch
Visualization TLE readout
Latitude
-18.02641°
Longitude
-49.38358°
Altitude
480.528 km
Speed
7.625 km/s
Apparent Right ascension
19h 13m 43s
Apparent Declination
-64° 26' 11"
Sunlit
Object is in full shadow
Visualization observer readout
Local Sidereal Time
14:33:01
Azimuth
152.68° SSE
Elevation
-27.814°
Doppler factor
1
Orbital elements
Apogee altitude
476.456 km
Perigee altitude
474.591 km
Semi-major axis
6,853.66 km
Eccentricity
0.000136
Inclination
53.1625°
RAAN
54.487°
Arg. of periapsis
88.3862°
True anomaly
271.71392°
Mean anomaly
271.7295°
Eccentric anomaly
271.72171°
Mean motion
3.82525 °/min
BSTAR
0.0000091753
Orbital period
94.11 mins
Loading maneuver chart data...
Loading SW <> Apogee altitude chart data...
Loading historical data...
Loading historical data...
Loading historical data...
Loading historical data...
Loading historical data...
Loading historical data...
Loading historical data...

STARLINK-32171 Visibility forecast

Observer location: undefined°, undefined°

Span
Click to sort rows by Start time (UTC) header in descending order
Start Az.
Max El. time (UTC)
Max El. Az.
Max El.
End time (UTC)
End Az.
7 mins2025-05-09 21:22:12.128Z226.013° WSW2025-05-09 21:25:12.128Z209.37° SW43.064°2025-05-09 21:29:12.128Z51.502° ENE
4 mins2025-05-10 02:20:12.128Z344.197° N2025-05-10 02:22:12.128Z19.891° NNE15.546°2025-05-10 02:24:12.128Z55.337° ENE
6 mins2025-05-10 03:58:12.128Z317.597° NNW2025-05-10 04:00:12.128Z351.577° N40.879°2025-05-10 04:04:12.128Z122.178° SE
|